Starlink 11586

operational
NORAD ID: 63009 Int'l Des: 2025-032 Owner: SPXS Country: US Constellation: starlink
LEOCIRCULAR

关于 Starlink 11586

正在加载描述...

实时位置

正在加载3D地球...

即将过境

高度历史

Altitude vs Time

uPlot chart will show altitude changes over time

两行轨道根数

1 63009U 25032E 25258.96297248 .00147689 00000-0 11309-2 0 9990
2 63009 43.0016 168.5507 0002864 285.5045 74.5506 15.70905580 34739
Epoch: Sep 15, 2025 • Age: 38 hours

当前状态

高度 359.3 km
速度 7.69 km/s
星下点 -20.08°S, 176.09°E
发射日期 Feb 15, 2025
运行时间 0.5 years
类型 internet

技术详情

分类 Payload
质量 960.00 kg
干质量 910.00 kg
总质量 960.00 kg
长度 0.30 m
直径 4.10 m
跨度 29.00 m
形状 Box + pan
制造商 SPXS
平台类型 Starlink V2MD
阶段状态 In Orbit
所有者/国家 SPXS/US

大型星座

Loading constellations...